Wetterdaten: aktuell Dienstag, 26.03.2019 19:40
Datum Zeit Temp. 2m rel. Feuchte Luftdruck Regen Wind Richtung Richtung Sonne ET UV-Index Solar Taupunkt Ben
26.03.2019 19:40 7,8 C 76 % 1031,1 hPa 0,0 mm 2,4 km/h (1 Bft) SW 232 0 min 0,0 mm 0,0 UV-I 0 W/m 3,8 C 8,9 km/h (2 Bft)
26.03.2019 18:40 8,2 C 71 % 1030,6 hPa 0,0 mm 0,0 km/h (0 Bft) S-SW 203 0 min 0,0 mm 0,0 UV-I 6 W/m 3,3 C 0,0 km/h (0 Bft)
26.03.2019 17:40 8,6 C 69 % 1030,5 hPa 0,0 mm 0,0 km/h (0 Bft) NW 304 0 min 0,0 mm 0,0 UV-I 29 W/m 3,2 C 0,0 km/h (0 Bft)
26.03.2019 16:40 8,7 C 69 % 1030,6 hPa 0,0 mm 0,5 km/h (0 Bft) W-NW 286 0 min 0,1 mm 0,0 UV-I 57 W/m 3,3 C 4,4 km/h (1 Bft)
26.03.2019 15:40 8,5 C 69 % 1030,7 hPa 0,0 mm 0,5 km/h (0 Bft) W 280 0 min 0,1 mm 0,1 UV-I 70 W/m 3,1 C 4,4 km/h (1 Bft)
26.03.2019 14:40 8,8 C 67 % 1030,7 hPa 0,0 mm 1,4 km/h (1 Bft) O 84 0 min 0,1 mm 0,6 UV-I 246 W/m 3,0 C 4,4 km/h (1 Bft)
26.03.2019 13:40 9,3 C 65 % 1031,2 hPa 0,0 mm 12,3 km/h (3 Bft) W-NW 292 30 min 0,1 mm 0,4 UV-I 118 W/m 3,1 C 22,2 km/h (4 Bft)
26.03.2019 12:40 8,4 C 68 % 1031,6 hPa 0,0 mm 3,8 km/h (1 Bft) W 267 5 min 0,1 mm 1,0 UV-I 420 W/m 2,8 C 13,3 km/h (3 Bft)
26.03.2019 11:40 7,8 C 71 % 1031,8 hPa 0,0 mm 2,8 km/h (1 Bft) N 349 15 min 0,2 mm 0,4 UV-I 139 W/m 2,9 C 8,9 km/h (2 Bft)
26.03.2019 10:40 8,2 C 67 % 1031,7 hPa 0,0 mm 1,6 km/h (1 Bft) O 84 35 min 0,1 mm 1,0 UV-I 327 W/m 2,4 C 6,7 km/h (2 Bft)
26.03.2019 09:40 6,9 C 73 % 1031,8 hPa 0,0 mm 6,2 km/h (2 Bft) O 84 0 min 0,0 mm 0,7 UV-I 235 W/m 2,4 C 17,8 km/h (3 Bft)
26.03.2019 08:40 6,2 C 79 % 1031,8 hPa 0,0 mm 0,9 km/h (0 Bft) W-NW 297 0 min 0,0 mm 0,4 UV-I 100 W/m 2,8 C 11,1 km/h (2 Bft)
26.03.2019 07:40 5,8 C 79 % 1031,2 hPa 0,0 mm 1,2 km/h (1 Bft) W-SW 258 0 min 0,0 mm 0,0 UV-I 50 W/m 2,4 C 4,4 km/h (1 Bft)
26.03.2019 06:40 5,6 C 78 % 1030,7 hPa 0,0 mm 0,1 km/h (0 Bft) W-NW 291 0 min 0,0 mm 0,0 UV-I 4 W/m 2,1 C 2,2 km/h (1 Bft)
26.03.2019 05:40 5,6 C 76 % 1030,7 hPa 0,0 mm 0,0 km/h (0 Bft) W 281 0 min 0,0 mm 0,0 UV-I 0 W/m 1,7 C 0,0 km/h (0 Bft)
26.03.2019 04:40 5,7 C 80 % 1030,5 hPa 0,0 mm 0,2 km/h (0 Bft) W-NW 289 0 min 0,0 mm 0,0 UV-I 0 W/m 2,5 C 2,2 km/h (1 Bft)
26.03.2019 03:35 5,7 C 76 % 1030,4 hPa 0,0 mm 0,4 km/h (0 Bft) NW 304 0 min 0,0 mm 0,0 UV-I 0 W/m 1,8 C 2,2 km/h (1 Bft)
26.03.2019 02:35 5,9 C 80 % 1030,2 hPa 0,0 mm 1,0 km/h (0 Bft) N 351 0 min 0,0 mm 0,0 UV-I 0 W/m 2,7 C 4,4 km/h (1 Bft)
26.03.2019 01:35 6,1 C 81 % 1030,2 hPa 0,0 mm 1,4 km/h (1 Bft) W-NW 297 0 min 0,0 mm 0,0 UV-I 0 W/m 3,1 C 8,9 km/h (2 Bft)
26.03.2019 00:35 6,4 C 81 % 1029,8 hPa 0,0 mm 0,8 km/h (0 Bft) NW 311 0 min 0,0 mm 0,0 UV-I 0 W/m 3,4 C 2,2 km/h (1 Bft)
25.03.2019 23:35 6,7 C 80 % 1029,5 hPa 0,0 mm 1,4 km/h (1 Bft) N-NW 347 0 min 0,0 mm 0,0 UV-I 0 W/m 3,5 C 4,4 km/h (1 Bft)
25.03.2019 22:35 6,9 C 78 % 1029,1 hPa 0,0 mm 1,4 km/h (1 Bft) N-NW 327 0 min 0,0 mm 0,0 UV-I 0 W/m 3,3 C 11,1 km/h (2 Bft)
25.03.2019 21:35 7,2 C 78 % 1028,0 hPa 0,0 mm 1,6 km/h (1 Bft) NW 312 0 min 0,0 mm 0,0 UV-I 0 W/m 3,6 C 6,7 km/h (2 Bft)
25.03.2019 20:35 7,5 C 73 % 1027,0 hPa 0,0 mm 0,9 km/h (0 Bft) NW 325 0 min 0,0 mm 0,0 UV-I 0 W/m 3,0 C 4,4 km/h (1 Bft)
25.03.2019 20:00 7,7 C 73 % 1026,3 hPa 0,0 mm 1,7 km/h (1 Bft) N 357 0 min 0,0 mm 0,0 UV-I 0 W/m 3,2 C 4,4 km/h (1 Bft)
_ Min-Zeit 05:10 11:00 20:00 - 03:20 - - - - - - 06:20 03:55
Minimum _ 5,5 C 64 % 1026,3 hPa - 0,0 km/h (0 Bft) - - - - - - 1,3 C 0,0 km/h (0 Bft)
_ Max-Zeit 13:35 00:50 11:05 20:00 13:40 - - 09:45 11:00 10:30 10:30 19:40 12:55
Maximum _ 9,6 C 82 % 1031,9 hPa 0,0 mm 12,3 km/h
W-NW (3 Bft)
- - 5 min 0,2 mm 1,4 UV-I 714 W/m 3,8 C 28,9 km/h
W-SW (5 Bft)
Durchschnitt _ 7,2 C 74 % 1030,1 hPa #0,0 mm 1,5 km/h (1 Bft) W - #1:25 h #0,787 mm 0,6 UV-I 156 W/m 2,9 C 6,2 km/h (2 Bft)



© 1998 - 2019 www.pulheimwetter.de